Myrtle Beach, SC

9:45 PM EST on December 03, 2016 (GMT -0500)
Myrtle Beach International

Weather History for KMYR - July, 2013

Change the Weather History Date:

Wednesday, July 31, 2013

  Actual Average Record
Temperature  
Mean Temperature 78 °F -  
Max Temperature 84 °F 84 °F 95 °F (1953)
Min Temperature 73 °F 69 °F 63 °F (1997)
Cooling Degree Days 14    
Growing Degree Days 28 (Base 50)    
Moisture  
Dew Point 73 °F    
Average Humidity 87    
Maximum Humidity 100    
Minimum Humidity 74    
Precipitation  
Precipitation 0.17 in - - ()
Sea Level Pressure  
Sea Level Pressure 30.10 in    
Wind  
Wind Speed 4 mph (SW)    
Max Wind Speed 9 mph    
Max Gust Speed 18 mph    
Visibility 8 miles    
Events Rain    
Averages and records for this station are not official NWS values.
T = Trace of Precipitation, MM = Missing Value Source: NWS Daily Summary

Daily Weather History Graph

Daily Weather History Graph

Search for Another Location

Airport or City:

Trip Planner

Search our weather history database for the weather conditions in past years. The results will help you decide how hot, cold, wet, or windy it might be!

Date:

Astronomy

Jul. 31, 2013 Rise Set
Actual Time 6:27 AM EDT 8:16 PM EDT
Civil Twilight 5:59 AM EDT 8:43 PM EDT
Nautical Twilight 5:26 AM EDT 9:16 PM EDT
Astronomical Twilight 4:51 AM EDT 9:51 PM EDT
Moon 1:21 AM EDT (7/31) 3:30 PM EDT (7/31)
Length of Visible Light 14h 43m
Length of Day
13h 49m
Waning Crescent, 32% of the Moon is Illuminated
Jul 31
Waning Crescent
Aug 6
New
Aug 14
First Quarter
Aug 20
Full
Aug 28
Last Quarter

Hourly Weather History & Observations

Time (EDT) Temp. Heat Index Dew Point Humidity Pressure Visibility Wind Dir Wind Speed Gust Speed Precip Events Conditions
12:15 AM 77.0 °F - 73.4 °F 89% 30.14 in 10.0 mi WSW 4.6 mph - N/A   Clear
12:35 AM 77.0 °F - 73.4 °F 89% 30.14 in 10.0 mi SW 4.6 mph - N/A   Clear
12:55 AM 77.0 °F - 73.4 °F 89% 30.14 in 10.0 mi SW 4.6 mph - N/A   Clear
1:15 AM 75.2 °F - 73.4 °F 94% 30.14 in 10.0 mi WSW 3.5 mph - N/A   Clear
1:35 AM 75.2 °F - 73.4 °F 94% 30.14 in 10.0 mi Calm Calm - N/A   Clear
1:55 AM 75.2 °F - 73.4 °F 94% 30.13 in 10.0 mi Calm Calm - N/A   Partly Cloudy
2:15 AM 75.2 °F - 73.4 °F 94% 30.13 in 10.0 mi West 3.5 mph - N/A   Partly Cloudy
2:55 AM 75.2 °F - 73.4 °F 94% 30.12 in 10.0 mi Calm Calm - N/A   Partly Cloudy
3:15 AM 75.2 °F - 71.6 °F 89% 30.11 in 9.0 mi NNW 3.5 mph - N/A   Clear
3:35 AM 75.2 °F - 71.6 °F 89% 30.11 in 9.0 mi NNW 4.6 mph - N/A   Clear
3:55 AM 75.2 °F - 71.6 °F 89% 30.11 in 7.0 mi NNW 3.5 mph - N/A   Clear
4:15 AM 75.2 °F - 71.6 °F 89% 30.11 in 5.0 mi Calm Calm - N/A   Clear
4:35 AM 75.2 °F - 71.6 °F 89% 30.11 in 7.0 mi NW 3.5 mph - N/A   Clear
4:55 AM 73.4 °F - 71.6 °F 94% 30.11 in 6.0 mi Calm Calm - N/A   Clear
5:15 AM 75.2 °F - 71.6 °F 89% 30.12 in 7.0 mi North 3.5 mph - N/A   Clear
5:35 AM 75.2 °F - 71.6 °F 89% 30.12 in 5.0 mi Calm Calm - N/A   Clear
5:45 AM 75.2 °F - 71.6 °F 89% 30.12 in 10.0 mi Calm Calm - N/A   Scattered Clouds
6:45 AM 73.4 °F - 73.4 °F 100% 30.12 in 7.0 mi Calm Calm - N/A   Scattered Clouds
7:45 AM 75.2 °F - 73.4 °F 94% 30.12 in 8.0 mi Calm Calm - N/A   Haze
8:35 AM 78.8 °F - 75.2 °F 89% 30.13 in 8.0 mi NE 6.9 mph - N/A   Clear
8:50 AM 80.6 °F 86.2 °F 75.2 °F 84% 30.13 in 8.0 mi NE 8.1 mph - N/A   Partly Cloudy
9:50 AM 82.4 °F 88.2 °F 73.4 °F 74% 30.15 in 10.0 mi NNE 6.9 mph - N/A   Scattered Clouds
10:45 AM 82.4 °F 89.5 °F 75.2 °F 79% 30.14 in 10.0 mi Variable 6.9 mph - N/A   Scattered Clouds
11:32 AM 84.2 °F 92.3 °F 75.2 °F 74% 30.14 in 10.0 mi ESE 9.2 mph - N/A   Scattered Clouds
11:45 AM 84.2 °F 92.3 °F 75.2 °F 74% 30.13 in 10.0 mi SE 9.2 mph - N/A   Scattered Clouds
12:45 PM 82.4 °F 88.2 °F 73.4 °F 74% 30.12 in 10.0 mi ESE 9.2 mph - N/A   Scattered Clouds
3:45 PM 80.6 °F 85.4 °F 73.4 °F 79% 30.07 in 7.0 mi SE 6.9 mph - N/A   Scattered Clouds
4:45 PM 82.4 °F 88.2 °F 73.4 °F 74% 30.05 in 7.0 mi SSE 6.9 mph - N/A   Scattered Clouds
5:45 PM 80.6 °F 85.4 °F 73.4 °F 79% 30.04 in 7.0 mi South 9.2 mph - N/A   Scattered Clouds
6:50 PM 80.6 °F 85.4 °F 73.4 °F 79% 30.04 in 7.0 mi South 8.1 mph - N/A   Mostly Cloudy
7:50 PM 78.8 °F - 71.6 °F 78% 30.06 in 7.0 mi SW 4.6 mph - N/A   Mostly Cloudy
8:45 PM 75.2 °F - 71.6 °F 89% 30.06 in 10.0 mi Calm Calm - N/A   Partly Cloudy
9:55 PM 75.2 °F - 73.4 °F 94% 30.06 in 7.0 mi WSW 4.6 mph - N/A Rain Light Rain
10:55 PM 75.2 °F - 73.4 °F 94% 30.06 in 5.0 mi SW 4.6 mph 18.4 mph 0.15 in   Mostly Cloudy
11:15 PM 75.2 °F - 73.4 °F 94% 30.04 in 9.0 mi SW 4.6 mph - 0.01 in   Partly Cloudy
11:35 PM 75.2 °F - 73.4 °F 94% 30.04 in 9.0 mi SW 5.8 mph - 0.02 in   Clear
11:55 PM 75.2 °F - 73.4 °F 94% 30.03 in 10.0 mi WSW 5.8 mph - 0.02 in   Clear